HISTORICAL SENSOR DATA

Sensor Data Report

DB LIVE
CURRENT TIME--:--:--
DEVICE NETWORK Gateway Status
13 ESP · realtime ~1s · history 60s
Weather WS-MOD-01
ONLINE
Actuator ACT-MOD-01
OFFLINE
Mainboard L3 MB-L3-01
ONLINE
Mainboard L5 MB-L5-01
ONLINE
Remote AC AC-REMOTE-01
ONLINE
PZEM L3-01 PWR-L3-01
OFFLINE
PZEM L3-02 PWR-L3-02
OFFLINE
PZEM L3-03 PWR-L3-03
OFFLINE
PZEM L3-04 PWR-L3-04
OFFLINE
PZEM L5-01 PWR-L5-01
ONLINE
PZEM L5-02 PWR-L5-02
ONLINE
PZEM L5-03 PWR-L5-03
OFFLINE
PZEM L5-04 PWR-L5-04
OFFLINE
REPORT FILTER

Periode & Sensor

DATABASE HISTORY
RESET
QUICK RANGE Hari ini 7 hari 30 hari
PERIODE09 Aug 2026sampai 07 Sep 2026
TOTAL DATA70,925sensor readings
MINIMUM-0.50sesuai filter
AVERAGE82.66sesuai filter
MAXIMUM32,564.20sesuai filter
REPORT RESULT

Data Sensor

09/08/2026 — 07/09/2026 EXPORT CSV
NOTANGGALWAKTUDEVICECHANNELSENSORVALUEUNIT
1 07/09/2026 00:45:00 MB-L3-01Mainboard Lantai 3 L3-RAD-01 Radiation 1 1.00 W/m²
2 07/09/2026 00:45:00 WS-MOD-01Weather Station Module WS-PRES Tekanan Udara 911.00 hPa
3 07/09/2026 00:45:00 MB-L5-01Mainboard Lantai 5 L5-ST-02 Surface Temperature 2 22.80 °C
4 07/09/2026 00:45:00 MB-L3-01Mainboard Lantai 3 L3-AI-05 Analog Input 5 3.12 V
5 07/09/2026 00:45:00 MB-L3-01Mainboard Lantai 3 L3-LUX-06 Illuminance / LUX 6 0.30 lux
6 07/09/2026 00:45:00 MB-L5-01Mainboard Lantai 5 L5-LUX-06 Illuminance / LUX 6 0.10 lux
7 07/09/2026 00:45:00 MB-L3-01Mainboard Lantai 3 L3-SHT-01-RH SHT20 1 Humidity 46.00 %RH
8 07/09/2026 00:45:00 MB-L5-01Mainboard Lantai 5 L5-BGT-01 Black Globe Temperature 1 26.60 °C
9 07/09/2026 00:45:00 PWR-L5-02Power Meter L5 PZEM 02 PZEM-L5-02-POWER PZEM L5-02 Active Power 0.00 W
10 07/09/2026 00:45:00 MB-L5-01Mainboard Lantai 5 L5-LUX-01 Illuminance / LUX 1 0.00 lux
11 07/09/2026 00:45:00 PWR-L5-01Power Meter L5 PZEM 01 PZEM-L5-01-POWER PZEM L5-01 Active Power 10.70 W
12 07/09/2026 00:45:00 MB-L3-01Mainboard Lantai 3 L3-AI-03 Analog Input 3 3.12 V
13 07/09/2026 00:45:00 MB-L3-01Mainboard Lantai 3 L3-AI-01 Analog Input 1 3.12 V
14 07/09/2026 00:45:00 MB-L3-01Mainboard Lantai 3 L3-LUX-04 Illuminance / LUX 4 0.10 lux
15 07/09/2026 00:45:00 MB-L5-01Mainboard Lantai 5 L5-RAD-01 Radiation 1 1.00 W/m²
16 07/09/2026 00:45:00 MB-L5-01Mainboard Lantai 5 L5-RAD-02 Radiation 2 1.00 W/m²
17 07/09/2026 00:45:00 WS-MOD-01Weather Station Module WS-RH Kelembapan Udara 78.90 %RH
18 07/09/2026 00:45:00 MB-L5-01Mainboard Lantai 5 L5-AI-05 Analog Input 5 3.05 V
19 07/09/2026 00:45:00 MB-L3-01Mainboard Lantai 3 L3-LUX-05 Illuminance / LUX 5 0.30 lux
20 07/09/2026 00:45:00 MB-L3-01Mainboard Lantai 3 L3-SHT-01-T SHT20 1 Temperature 28.40 °C
21 07/09/2026 00:45:00 MB-L3-01Mainboard Lantai 3 L3-SHT-03-T SHT20 3 Temperature 28.90 °C
22 07/09/2026 00:45:00 PWR-L5-01Power Meter L5 PZEM 01 PZEM-L5-01-ENERGY PZEM L5-01 Energy 0.07 kWh
23 07/09/2026 00:45:00 PWR-L5-02Power Meter L5 PZEM 02 PZEM-L5-02-CURR PZEM L5-02 Current 0.00 A
24 07/09/2026 00:45:00 MB-L5-01Mainboard Lantai 5 L5-AI-03 Analog Input 3 3.05 V
25 07/09/2026 00:45:00 MB-L3-01Mainboard Lantai 3 L3-LUX-01 Illuminance / LUX 1 0.20 lux
26 07/09/2026 00:45:00 MB-L3-01Mainboard Lantai 3 L3-SHT-02-T SHT20 2 Temperature 28.70 °C
27 07/09/2026 00:45:00 WS-MOD-01Weather Station Module WS-TEMP Suhu Udara 19.30 °C
28 07/09/2026 00:45:00 AC-REMOTE-01Remote AC AC-FAN AC Fan Speed 0.00 code
29 07/09/2026 00:45:00 PWR-L5-02Power Meter L5 PZEM 02 PZEM-L5-02-PF PZEM L5-02 Power Factor 0.00
30 07/09/2026 00:45:00 MB-L5-01Mainboard Lantai 5 L5-HFT-01 Heat Flow Temperature 1 23.60 °C
31 07/09/2026 00:45:00 MB-L5-01Mainboard Lantai 5 L5-AI-01 Analog Input 1 3.05 V
32 07/09/2026 00:45:00 MB-L3-01Mainboard Lantai 3 L3-AI-06 Analog Input 6 3.12 V
33 07/09/2026 00:45:00 MB-L5-01Mainboard Lantai 5 L5-SHT-01-RH SHT20 1 Humidity 46.40 %RH
34 07/09/2026 00:45:00 PWR-L5-01Power Meter L5 PZEM 01 PZEM-L5-01-FREQ PZEM L5-01 Frequency 50.00 Hz
35 07/09/2026 00:45:00 MB-L5-01Mainboard Lantai 5 L5-BGT-02 Black Globe Temperature 2 26.60 °C
36 07/09/2026 00:45:00 PWR-L5-02Power Meter L5 PZEM 02 PZEM-L5-02-VOLT PZEM L5-02 Voltage 225.40 V
37 07/09/2026 00:45:00 MB-L3-01Mainboard Lantai 3 L3-RAD-02 Radiation 2 1.00 W/m²
38 07/09/2026 00:45:00 MB-L3-01Mainboard Lantai 3 L3-AI-04 Analog Input 4 3.12 V
39 07/09/2026 00:45:00 AC-REMOTE-01Remote AC AC-MODE AC Operating Mode 1.00 code
40 07/09/2026 00:45:00 MB-L5-01Mainboard Lantai 5 L5-SHT-01-T SHT20 1 Temperature 28.50 °C
41 07/09/2026 00:45:00 MB-L3-01Mainboard Lantai 3 L3-LUX-03 Illuminance / LUX 3 0.20 lux
42 07/09/2026 00:45:00 MB-L3-01Mainboard Lantai 3 L3-AI-02 Analog Input 2 3.12 V
43 07/09/2026 00:45:00 MB-L5-01Mainboard Lantai 5 L5-SHT-02-T SHT20 2 Temperature 28.90 °C
44 07/09/2026 00:45:00 PWR-L5-02Power Meter L5 PZEM 02 PZEM-L5-02-FREQ PZEM L5-02 Frequency 50.00 Hz
45 07/09/2026 00:45:00 MB-L5-01Mainboard Lantai 5 L5-ST-01 Surface Temperature 1 23.70 °C
46 07/09/2026 00:45:00 MB-L5-01Mainboard Lantai 5 L5-LUX-03 Illuminance / LUX 3 0.20 lux
47 07/09/2026 00:45:00 WS-MOD-01Weather Station Module WS-WIND Kecepatan Angin 6.09 m/s
48 07/09/2026 00:45:00 PWR-L5-01Power Meter L5 PZEM 01 PZEM-L5-01-VOLT PZEM L5-01 Voltage 225.50 V
49 07/09/2026 00:45:00 MB-L5-01Mainboard Lantai 5 L5-AI-06 Analog Input 6 3.05 V
50 07/09/2026 00:45:00 WS-MOD-01Weather Station Module WS-DIR Arah Angin 71.10 °
51 07/09/2026 00:45:00 MB-L3-01Mainboard Lantai 3 L3-LUX-02 Illuminance / LUX 2 0.20 lux
52 07/09/2026 00:45:00 AC-REMOTE-01Remote AC AC-SETPOINT AC Set Temperature 23.00 °C
53 07/09/2026 00:45:00 PWR-L5-01Power Meter L5 PZEM 01 PZEM-L5-01-PF PZEM L5-01 Power Factor 0.38
54 07/09/2026 00:45:00 MB-L3-01Mainboard Lantai 3 L3-SHT-02-RH SHT20 2 Humidity 45.20 %RH
55 07/09/2026 00:45:00 MB-L5-01Mainboard Lantai 5 L5-SHT-02-RH SHT20 2 Humidity 45.60 %RH
56 07/09/2026 00:45:00 MB-L5-01Mainboard Lantai 5 L5-AI-04 Analog Input 4 3.05 V
57 07/09/2026 00:45:00 MB-L5-01Mainboard Lantai 5 L5-SHT-03-T SHT20 3 Temperature 28.70 °C
58 07/09/2026 00:45:00 PWR-L5-01Power Meter L5 PZEM 01 PZEM-L5-01-CURR PZEM L5-01 Current 0.13 A
59 07/09/2026 00:45:00 MB-L5-01Mainboard Lantai 5 L5-SHT-03-RH SHT20 3 Humidity 46.00 %RH
60 07/09/2026 00:45:00 MB-L3-01Mainboard Lantai 3 L3-SHT-03-RH SHT20 3 Humidity 45.20 %RH
61 07/09/2026 00:45:00 PWR-L5-02Power Meter L5 PZEM 02 PZEM-L5-02-ENERGY PZEM L5-02 Energy 0.04 kWh
62 07/09/2026 00:45:00 MB-L5-01Mainboard Lantai 5 L5-LUX-02 Illuminance / LUX 2 0.10 lux
63 07/09/2026 00:45:00 MB-L5-01Mainboard Lantai 5 L5-HFT-02 Heat Flow Temperature 2 22.70 °C
64 07/09/2026 00:45:00 AC-REMOTE-01Remote AC AC-POWER AC Power State 1.00 state
65 07/09/2026 00:45:00 MB-L5-01Mainboard Lantai 5 L5-AI-02 Analog Input 2 3.05 V
66 07/09/2026 00:45:00 MB-L5-01Mainboard Lantai 5 L5-LUX-04 Illuminance / LUX 4 0.10 lux
67 07/09/2026 00:45:00 MB-L5-01Mainboard Lantai 5 L5-BGT-03 Black Globe Temperature 3 26.40 °C
68 07/09/2026 00:44:00 MB-L5-01Mainboard Lantai 5 L5-RAD-01 Radiation 1 1.00 W/m²
69 07/09/2026 00:44:00 MB-L5-01Mainboard Lantai 5 L5-RAD-02 Radiation 2 1.00 W/m²
70 07/09/2026 00:44:00 WS-MOD-01Weather Station Module WS-RH Kelembapan Udara 79.10 %RH
71 07/09/2026 00:44:00 MB-L5-01Mainboard Lantai 5 L5-AI-05 Analog Input 5 3.05 V
72 07/09/2026 00:44:00 MB-L3-01Mainboard Lantai 3 L3-LUX-05 Illuminance / LUX 5 0.30 lux
73 07/09/2026 00:44:00 MB-L3-01Mainboard Lantai 3 L3-SHT-01-T SHT20 1 Temperature 28.40 °C
74 07/09/2026 00:44:00 MB-L3-01Mainboard Lantai 3 L3-SHT-03-T SHT20 3 Temperature 28.90 °C
75 07/09/2026 00:44:00 PWR-L5-01Power Meter L5 PZEM 01 PZEM-L5-01-ENERGY PZEM L5-01 Energy 0.07 kWh
76 07/09/2026 00:44:00 PWR-L5-02Power Meter L5 PZEM 02 PZEM-L5-02-CURR PZEM L5-02 Current 0.00 A
77 07/09/2026 00:44:00 MB-L5-01Mainboard Lantai 5 L5-AI-03 Analog Input 3 3.05 V
78 07/09/2026 00:44:00 MB-L3-01Mainboard Lantai 3 L3-LUX-01 Illuminance / LUX 1 0.20 lux
79 07/09/2026 00:44:00 MB-L3-01Mainboard Lantai 3 L3-SHT-02-T SHT20 2 Temperature 28.80 °C
80 07/09/2026 00:44:00 WS-MOD-01Weather Station Module WS-TEMP Suhu Udara 19.20 °C
81 07/09/2026 00:44:00 AC-REMOTE-01Remote AC AC-FAN AC Fan Speed 0.00 code
82 07/09/2026 00:44:00 PWR-L5-02Power Meter L5 PZEM 02 PZEM-L5-02-PF PZEM L5-02 Power Factor 0.00
83 07/09/2026 00:44:00 MB-L5-01Mainboard Lantai 5 L5-HFT-01 Heat Flow Temperature 1 23.50 °C
84 07/09/2026 00:44:00 MB-L5-01Mainboard Lantai 5 L5-AI-01 Analog Input 1 3.05 V
85 07/09/2026 00:44:00 MB-L3-01Mainboard Lantai 3 L3-AI-06 Analog Input 6 3.12 V
86 07/09/2026 00:44:00 MB-L5-01Mainboard Lantai 5 L5-SHT-01-RH SHT20 1 Humidity 46.30 %RH
87 07/09/2026 00:44:00 PWR-L5-01Power Meter L5 PZEM 01 PZEM-L5-01-FREQ PZEM L5-01 Frequency 50.00 Hz
88 07/09/2026 00:44:00 MB-L5-01Mainboard Lantai 5 L5-BGT-02 Black Globe Temperature 2 26.60 °C
89 07/09/2026 00:44:00 PWR-L5-02Power Meter L5 PZEM 02 PZEM-L5-02-VOLT PZEM L5-02 Voltage 225.40 V
90 07/09/2026 00:44:00 MB-L3-01Mainboard Lantai 3 L3-RAD-02 Radiation 2 1.00 W/m²
91 07/09/2026 00:44:00 MB-L3-01Mainboard Lantai 3 L3-AI-04 Analog Input 4 3.12 V
92 07/09/2026 00:44:00 AC-REMOTE-01Remote AC AC-MODE AC Operating Mode 1.00 code
93 07/09/2026 00:44:00 MB-L5-01Mainboard Lantai 5 L5-SHT-01-T SHT20 1 Temperature 28.50 °C
94 07/09/2026 00:44:00 MB-L3-01Mainboard Lantai 3 L3-LUX-03 Illuminance / LUX 3 0.20 lux
95 07/09/2026 00:44:00 MB-L3-01Mainboard Lantai 3 L3-AI-02 Analog Input 2 3.12 V
96 07/09/2026 00:44:00 MB-L5-01Mainboard Lantai 5 L5-SHT-02-T SHT20 2 Temperature 28.90 °C
97 07/09/2026 00:44:00 PWR-L5-02Power Meter L5 PZEM 02 PZEM-L5-02-FREQ PZEM L5-02 Frequency 50.00 Hz
98 07/09/2026 00:44:00 MB-L5-01Mainboard Lantai 5 L5-ST-01 Surface Temperature 1 23.60 °C
99 07/09/2026 00:44:00 MB-L5-01Mainboard Lantai 5 L5-LUX-03 Illuminance / LUX 3 0.10 lux
100 07/09/2026 00:44:00 WS-MOD-01Weather Station Module WS-WIND Kecepatan Angin 4.84 m/s
Menampilkan maksimal 100 data per halaman
PAGE 1 NEXT →